Weather in El Minya

Egypt     28°16′55″N   30°09′21″E
temp.,
°C
wind,
m/s
gust,
m/s
humid.,
%
clouds,
%
prec.,
mm/h
press.,
hPa
HPBL,
m
24 january, mon
mon2423:00+12w475898 0.0 1021247
02:00+11wnw44555 0.0 102143
05:00+8nw47595 0.0 1022118
08:00+8nw47690 0.0 1023233
11:00+12nw56430 0.0 10241044
14:00+14wnw66330 0.0 10211520
17:00+13wnw56320 0.0 1022493
20:00+10wnw45362 0.0 102374
25 january, tue
tue2523:00+9wnw44410 0.0 102444
02:00+7wnw33460 0.0 102329
05:00+7wnw33490 0.0 102218
08:00+7wnw34500 0.0 102387
11:00+11w44360 0.0 1024797
14:00+14wnw45324 0.0 10211604
17:00+13wnw45345 0.0 1020214
20:00+11wnw33435 0.0 102224
26 january, wed
wed2623:00+10w33495 0.0 102219
02:00+9wsw44535 0.0 102137
05:00+8wsw47556 0.0 102089
08:00+9wnw91280100 0.1 10221182
11:00+10wnw1213464 0.1 10231166
14:00+12nw1113355 0.1 10221952
17:00+11nw911312 0.0 10231794
20:00+9wnw610390 0.0 1025255
27 january, thu
thu2723:00+8wnw48503 0.0 1026140
02:00+6w48540 0.0 1026130
05:00+6wnw48605 0.0 1026129
08:00+6w49524 0.0 1028258
11:00+12nw710445 0.0 10271319
14:00+14nw79392 0.0 10251736
17:00+14nw684261 0.0 1025555
20:00+11nw3451100 0.0 102761
28 january, fri
fri2823:00+10nw44598 0.0 102758
02:00+9wnw33656 0.0 102630
05:00+8n227010 0.0 102611
08:00+9n2265100 0.0 102891
11:00+11ne23538 0.0 1027285
14:00+15nnw45385 0.0 10241637
17:00+15nnw45405 0.0 1024142
20:00+12n47485 0.0 1025102